Weather History for Greenville, ME

Change the Weather History Date:

Saturday, March 8, 2014

  Actual Average (KMLT) Record (KMLT)
Temperature  
Mean Temperature 26 °F 25 °F  
Max Temperature 34 °F 35 °F 62 °F (1974)
Min Temperature 17 °F 15 °F -22 °F (1920)
Degree Days  
Heating Degree Days 39 40  
Month to date heating degree days 326  
Since 1 July heating degree days 6378  
Cooling Degree Days 0 0  
Month to date cooling degree days 0  
Year to date cooling degree days 0  
Moisture  
Dew Point 14 °F    
Average Humidity 61    
Maximum Humidity 88    
Minimum Humidity 47    
Precipitation  
Precipitation 0.00 in 0.07 in 1.76 in (1930)
Month to date precipitation 0.58  
Year to date precipitation 5.69  
Sea Level Pressure  
Sea Level Pressure 29.77 in    
Wind  
Wind Speed 6 mph (NNW)    
Max Wind Speed 16 mph    
Max Gust Speed 24 mph    
T = Trace of Precipitation, MM = Missing Value Source: NWS Daily Summary

Daily Weather History Graph

Daily Weather History Graph

Search for Another Location

Airport:

Trip Planner

Search our weather history database for the weather conditions in past years. The results will help you decide how hot, cold, wet, or windy it might be!

Date:

Astronomy

Mar. 08, 2014 Rise Set
Actual Time 6:04 AM EST 5:34 PM EST
Civil Twilight 5:34 AM EST 6:04 PM EST
Nautical Twilight 5:00 AM EST 6:38 PM EST
Astronomical Twilight 4:25 AM EST 7:13 PM EST
Moon 10:24 AM EST (3/8) 12:48 AM EST (3/8)
Length of Visible Light 12h 29m
Length of Day
11h 30m
First Quarter, 51% of the Moon is Illuminated
Mar 8
First Quarter
Mar 16
Full
Mar 23
Last Quarter
Mar 30
New
Apr 7
First Quarter

Hourly Weather History & Observations

Time (EST) Temp. Windchill Dew Point Humidity Pressure Visibility Wind Dir Wind Speed Gust Speed Precip Events Conditions
12:56 AM 19.0 °F 12.3 °F 15.1 °F 85% 29.88 in - SE 4.6 mph - N/A   Unknown
1:56 AM 18.0 °F 11.1 °F 14.0 °F 84% 29.86 in - ESE 4.6 mph - N/A   Unknown
2:56 AM 18.0 °F 12.7 °F 15.1 °F 88% 29.81 in - NNE 3.5 mph - N/A   Unknown
3:56 AM 19.9 °F - 12.9 °F 74% 29.79 in - Calm Calm - N/A   Unknown
4:56 AM 21.0 °F - 10.9 °F 65% 29.77 in - Calm Calm - N/A   Unknown
5:56 AM 21.9 °F - 8.1 °F 55% 29.77 in - Calm Calm - N/A   Unknown
6:56 AM 25.0 °F - 10.0 °F 53% 29.75 in - Calm Calm - N/A   Unknown
7:56 AM 30.9 °F - 12.9 °F 47% 29.75 in - Calm Calm - N/A   Unknown
8:56 AM 32.0 °F 26.4 °F 16.0 °F 52% 29.74 in - NW 5.8 mph - N/A   Unknown
9:56 AM 34.0 °F 28.8 °F 19.0 °F 54% 29.73 in - Variable 5.8 mph - N/A   Unknown
10:56 AM 33.1 °F 26.1 °F 19.9 °F 59% 29.72 in - NW 8.1 mph 20.7 mph N/A   Unknown
11:56 AM 33.1 °F 23.0 °F 21.9 °F 64% 29.72 in - NW 15.0 mph 21.9 mph N/A   Unknown
12:56 PM 32.0 °F 21.2 °F 21.0 °F 64% 29.71 in - NNW 16.1 mph 24.2 mph N/A   Unknown
1:56 PM 33.1 °F 23.4 °F 21.0 °F 61% 29.70 in - NW 13.8 mph 21.9 mph N/A   Unknown
2:56 PM 32.0 °F 21.2 °F 18.0 °F 56% 29.71 in - NW 16.1 mph 23.0 mph N/A   Unknown
3:56 PM 32.0 °F 24.2 °F 14.0 °F 48% 29.71 in - NW 9.2 mph 20.7 mph N/A   Unknown
4:56 PM 30.0 °F 23.2 °F 14.0 °F 51% 29.73 in - Variable 6.9 mph 18.4 mph N/A   Unknown
5:56 PM 27.0 °F 17.3 °F 12.9 °F 56% 29.75 in - NW 10.4 mph 16.1 mph N/A   Unknown
6:56 PM 25.0 °F 15.5 °F 10.9 °F 55% 29.77 in - NW 9.2 mph 18.4 mph N/A   Unknown
7:56 PM 24.1 °F 14.4 °F 10.0 °F 55% 29.78 in - NW 9.2 mph 17.3 mph N/A   Unknown
8:56 PM 21.9 °F 10.4 °F 10.0 °F 60% 29.79 in - NW 11.5 mph 21.9 mph N/A   Unknown
9:56 PM 19.9 °F 7.9 °F 9.0 °F 62% 29.80 in - NW 11.5 mph 18.4 mph N/A   Unknown
10:56 PM 18.0 °F 7.7 °F 8.1 °F 65% 29.81 in - NW 8.1 mph - N/A   Unknown
11:56 PM 17.1 °F 5.8 °F 3.9 °F 56% 29.82 in - NNW 9.2 mph - N/A   Unknown